OBJECT C, 62731

Orbit data source: Space-Track

You're viewing an Uncataloged Satellite

Recently launched and/or uncataloged satellites may have evolving metadata. Metadata may include but not limited to: Owner, Maufacturer, Bus, Motor, and Mission.

OBJECT C, 62731 is a Chinese satellite in SSO that was launched on Mon, 20 Jan 2025 UTC via a GUSHENXING 1 launch vehicle from the Jiuquan Satellite Launch Center, China (JSC). Unknown objects in Earth's orbit typically refer to objects detected orbiting the Earth but have not yet been identified or cataloged. These objects could be anything from previously untracked satellites, spent rocket stages, debris from satellite collisions, or even natural meteoroids temporarily captured by Earth's gravity.

Loading next visibility...
Identifier
62731, 2025-013C
Orbit
SSO
Country
Flag of CNCN / PRC
Related business
None
Manufacturer
Unknown
Mission
Operational Commercial Meteo Radio Occ.
Bus & Motor
Unknown
Mass
Unknown
Launch date (UTC)
2025-01-20 (9 months ago)
Launch vehicle
GUSHENXING 1
Launch site
Jiuquan Satellite Launch Center, China (JSC)
Object type
Unknown
Shape & HBR
Box + 1 Pan, 0.5 m
Radar Cross Section
5.339 m², Medium (>0.1 m² and < 1m²)

Expand to show TLE details & history
Last TLE update: 15 hours ago

TLE from 15 hours ago
0 OBJECT C
1 62731U 25013C   25306.47864573  .00005298  00000-0  33752-3 0  9997
2 62731  97.6316 111.0769 0015830  71.2689 289.0256 15.09077727 43114
Epoch: 2025-11-02T11:29Z
TLE epoch observation values (Epoch: 2025-11-02T11:29:14.991Z)
Latitude
0.00001°
Longitude
-103.22936°
Altitude
538.531 km
Speed
7.595 km/s
True Right ascension
07h 24m 18s
True Declination
0° 00' 00"
Sunlit
Object was in daylight at epoch
Visualization orbit readout
Latitude
Unknown
Longitude
Unknown
Altitude
Unknown
Speed
Unknown
Apparent Right ascension
Unknown
Apparent Declination
Unknown
Sunlit
N/A
Visualization observer readout
Local Sidereal Time
22:30:54
Azimuth
Unknown
Elevation
Unknown
Doppler factor
Unknown
Orbital elements
Apogee altitude
546.952 km
Perigee altitude
525.062 km
Semi-major axis
6,914.144 km
Eccentricity
0.00158
Inclination
97.6316°
RAAN
111.0769°
Arg. of periapsis
71.2689°
True anomaly
288.854°
Mean anomaly
289.0256°
Eccentric anomaly
288.93981°
Mean motion
3.77516 °/min
Orbital period
95.36 mins
BSTAR
0.00033752
Loading maneuver chart data...
Computing Atmospheric mass density...
Loading historical data...
Loading historical data...
Loading historical data...
Loading historical data...
Loading historical data...
Loading historical data...
Loading historical data...
Other satellites on launch #13 in the year 2025 (2025-01-20 UTC)

Documentation

Showing up to 5 results
|